User: anonymous   Login
Location: Curicchi
(45.0167°N, 12.0500°E)
Time: 21:01:23
(UTC+00:00)
Language:

Iridium 16 - Orbit

View from above orbital plane
View from above orbital plane
View from above satellite
View from above satellite

Ground track
Ground track

The orbit data is extracted from the following two-line orbital elements,

1 24841U 97030F   22021.44867458  .00000206  00000-0  63006-4 0  9998
2 24841  86.4045   6.5905 0003046 140.0073 220.1349 14.36998065288450
Epoch (UTC): 21 January 2022 10:46:05
Eccentricity: 0.0003046
inclination: 86.4045°
perigee height: 766 km
apogee height: 770 km
right ascension of ascending node: 6.5905°
argument of perigee: 140.0073°
revolutions per day: 14.36998065
mean anomaly at epoch: 220.1349°
orbit number at epoch: 28845

The dashed part of the orbit path shows where the satellite is in the earth's shadow,  

DLR